ニオワイズ彗星

C/2021 A4 ( NEOWISE )

English version
Home page
Updated on September 18, 2021

---------------------------------------------------------------------

・ プロフィール

発見日 2021年1月3日
発見光度 20等
発見者 Near-Earth Object Wide-field Infrared Survey Explorer

・ 写真集

・ 軌道要素

Epoch 2021 Mar. 7.0 TT = JDT 2459280.5
T 2021 Mar. 20.03314 TT                                 Rudenko
q   1.1455002            (2000.0)            P               Q
z  +0.0232314      Peri.  204.66152     -0.42560733     +0.51814429
 +/-0.0000185      Node   307.08408     +0.90438244     +0.21562206
e   0.9733885      Incl.  111.57097     -0.03083509     -0.82766758
From 709 observations 2021 Jan. 3-July 7, mean residual 1".1.

・ 星図

・ 光度変化

        m1 = 11.0 + 5 logΔ + 25.0 log r(t - 15)

---------------------------------------------------------------------

軌道要素はM.P.E.C. 2021-R75に掲載されたものです。
星図はステラナビゲータ Ver.10 (アストロアーツ) で作成したものです。
光度グラフはComet for Windowsで作成したものです。

---------------------------------------------------------------------

Copyright(C) Seiichi Yoshida (comet@aerith.net). All rights reserved.